Lid_Strength_Index
6 4 4 4 3 3 2 2 2 1 1 2 2 2 2 2 2 2 2 0 0 0 1 2 3 3 5 6 5 6 7 8 7 7 7 6 6 7 7 7 7 6 6
5 5 3 3 4 2 2 1 2 1 2 2 1 2 2 2 2 3 3 3 1 1 1 2 3 2 4 5 6 6 8 7 7 7 8 9 8 7 7 7 7 8 7
6 5 4 3 3 3 2 2 1 2 2 2 2 3 4 5 5 5 4 4 3 1 1 1 2 1 3 5 6 6 6 6 7 6 7 9 10 8 7 8 8 8 8
5 5 4 4 3 3 2 2 1 2 2 2 2 3 3 3 5 6 5 5 4 2 1 1 1 2 3 5 5 5 6 7 7 6 5 5 7 9 9 7 8 8 8
5 5 4 4 3 2 2 2 1 2 2 2 2 4 4 7 6 6 6 6 6 4 2 1 2 4 4 4 4 6 6 6 7 6 6 5 6 7 8 10 9 8 8
5 5 4 3 3 2 2 2 2 2 2 2 2 4 6 6 6 7 6 6 5 4 3 3 3 4 5 5 5 6 6 6 6 5 5 5 6 7 8 9 9 10 9
6 5 5 4 4 3 2 2 2 2 2 2 3 5 5 5 6 6 6 6 5 5 2 2 3 4 4 4 5 5 5 6 5 5 5 4 4 5 6 7 9 10 10
6 5 5 4 4 3 3 2 2 2 2 3 4 5 5 6 6 6 6 5 6 4 2 2 3 3 4 4 4 4 4 4 5 5 5 7 7 6 6 7 8 11 10
6 5 5 4 4 3 3 2 2 2 2 3 4 5 5 6 6 7 6 6 6 3 3 2 3 3 3 3 3 3 4 4 4 6 7 8 8 8 7 6 6 9 11
6 5 5 4 3 3 2 2 2 2 3 3 4 5 6 6 6 5 5 6 5 3 4 4 3 3 3 3 3 4 3 4 5 7 8 8 9 9 8 7 8 8 9
6 5 5 4 3 3 3 3 2 2 3 3 4 5 5 6 5 5 6 5 5 4 4 5 4 4 4 4 3 3 4 4 5 8 8 8 9 9 9 9 9 9 10
6 5 5 4 4 3 3 3 2 2 2 3 5 5 5 5 5 5 5 5 5 4 4 5 5 5 5 5 3 4 4 5 7 8 8 8 8 10 9 10 10 10 10
6 5 5 5 4 4 3 3 2 2 2 3 5 5 5 5 5 5 5 5 5 4 5 4 5 5 5 5 5 4 5 6 7 8 9 8 9 10 10 10 10 10 8
6 6 5 5 4 4 4 3 3 2 2 3 5 6 5 6 5 6 6 5 4 4 5 4 4 4 5 5 5 5 6 7 7 8 8 8 9 9 10 10 10 10 10
6 6 6 5 4 4 3 3 3 2 2 3 4 5 5 5 6 6 5 5 5 4 4 4 5 5 5 5 5 6 7 8 8 8 8 8 8 8 9 9 10 10 10
6 5 5 5 4 4 3 3 3 2 2 3 3 4 5 5 6 7 6 6 6 5 5 5 5 5 5 8 8 7 7 8 8 9 9 9 8 9 9 9 10 10 10
10 8 5 4 4 4 3 3 3 2 2 2 3 4 5 5 6 7 5 7 7 6 6 6 6 6 6 10 9 9 8 8 9 10 10 10 9 10 10 10 10 10 10
11 10 8 5 4 3 3 2 2 2 2 2 3 4 5 5 6 7 6 6 7 7 7 6 7 7 7 11 11 10 9 9 9 10 10 10 11 11 10 11 11 11 11
11 10 6 5 3 3 2 3 3 2 3 3 4 5 5 5 6 7 7 6 7 7 7 7 8 8 8 11 11 10 9 9 9 9 10 10 10 11 10 11 11 12 12
11 11 8 7 5 3 2 3 3 3 3 3 3 4 4 5 6 6 7 7 7 8 7 8 8 9 9 12 11 10 8 10 9 10 10 11 10 11 11 11 12 14 14
12 10 9 9 9 8 2 3 3 3 3 3 3 4 4 4 5 5 6 6 7 7 8 8 8 9 9 11 12 11 8 9 9 9 10 11 11 11 11 11 12 13 13
12 11 11 11 10 9 9 8 8 5 2 2 3 3 3 4 5 6 6 7 7 7 8 8 8 7 9 12 12 12 10 10 9 9 9 10 11 11 11 11 11 12 13
13 13 12 12 12 11 11 12 11 7 2 3 4 3 3 4 5 5 6 7 7 7 8 8 8 8 9 11 13 12 12 11 9 9 10 11 11 11 12 11 11 13 14
14 13 13 13 13 12 12 12 11 8 4 3 3 3 3 5 5 5 6 6 7 7 7 8 8 8 8 10 11 12 11 15 13 14 11 11 11 11 11 13 12 12 13
14 14 15 15 14 13 13 13 12 10 7 5 3 4 4 5 5 5 5 6 6 6 7 7 7 8 9 9 11 11 12 11 13 13 13 13 13 13 13 14 13 14 14
14 14 14 14 13 13 13 13 12 11 10 9 9 6 4 4 5 5 8 11 9 11 10 10 8 7 10 11 12 12 12 12 14 13 14 14 12 11 12 13 13 14 14